Chicago DuPage, IL

1:54 AM CDT on March 25, 2017 (GMT -0500)
Du Page

Weather History for KDPA - October, 2012

Change the Weather History Date:

Thursday, October 11, 2012

  Actual Average Record
Temperature  
Mean Temperature 48 °F 54 °F  
Max Temperature 66 °F 65 °F 82 °F (2010)
Min Temperature 30 °F 43 °F 28 °F (1996)
Degree Days  
Heating Degree Days 17 11  
Month to date heating degree days 171 109  
Since 1 July heating degree days 328 220  
Cooling Degree Days 0 1  
Month to date cooling degree days 0 11  
Year to date cooling degree days 1089 814  
Moisture  
Dew Point 32 °F    
Average Humidity 59    
Maximum Humidity 88    
Minimum Humidity 31    
Precipitation  
Precipitation 0.01 in 0.10 in 0.08 in (2003)
Month to date precipitation 0.40 1.20  
Year to date precipitation 15.97 30.12  
Sea Level Pressure  
Sea Level Pressure 30.12 in    
Wind  
Wind Speed 13 mph (SSW)    
Max Wind Speed 28 mph    
Max Gust Speed 33 mph    
Visibility 10 miles    
Events      
T = Trace of Precipitation, MM = Missing Value Source: NWS Daily Summary

Daily Weather History Graph

Daily Weather History Graph

Search for Another Location

Airport or City:

Trip Planner

Search our weather history database for the weather conditions in past years. The results will help you decide how hot, cold, wet, or windy it might be!

Date:

Astronomy

Oct. 11, 2012 Rise Set
Actual Time 7:01 AM CDT 6:17 PM CDT
Civil Twilight 6:33 AM CDT 6:45 PM CDT
Nautical Twilight 6:01 AM CDT 7:17 PM CDT
Astronomical Twilight 5:28 AM CDT 7:49 PM CDT
Moon 2:35 AM CDT (10/11) 3:56 PM CDT (10/11)
Length of Visible Light 12h 11m
Length of Day
11h 15m
Waning Crescent, 18% of the Moon is Illuminated
Oct 11
Waning Crescent
Oct 15
New
Oct 21
First Quarter
Oct 29
Full
Nov 6
Last Quarter

Hourly Weather History & Observations

Time (CDT) Temp. Windchill Dew Point Humidity Pressure Visibility Wind Dir Wind Speed Gust Speed Precip Events Conditions
12:52 AM 33.1 °F - 28.9 °F 85% 30.17 in 10.0 mi Calm Calm - N/A   Clear
1:52 AM 32.0 °F 28.7 °F 28.9 °F 88% 30.16 in 10.0 mi SSE 3.5 mph - N/A   Clear
2:52 AM 32.0 °F 27.5 °F 28.0 °F 85% 30.15 in 10.0 mi South 4.6 mph - N/A   Clear
3:52 AM 33.1 °F 26.9 °F 28.0 °F 82% 30.14 in 10.0 mi South 6.9 mph - N/A   Clear
4:52 AM 37.9 °F 30.9 °F 30.0 °F 73% 30.14 in 10.0 mi South 10.4 mph - N/A   Clear
5:52 AM 37.9 °F 32.1 °F 30.0 °F 73% 30.14 in 10.0 mi SSW 8.1 mph - N/A   Clear
6:52 AM 37.9 °F 31.5 °F 30.0 °F 73% 30.13 in 10.0 mi SSW 9.2 mph - N/A   Clear
7:52 AM 41.0 °F 33.9 °F 30.9 °F 67% 30.13 in 10.0 mi SSW 12.7 mph - N/A   Clear
8:52 AM 46.0 °F 38.5 °F 32.0 °F 58% 30.14 in 10.0 mi SW 19.6 mph 24.2 mph N/A   Clear
10:17 AM 53.6 °F - 33.8 °F 47% 30.12 in 10.0 mi SW 20.7 mph 27.6 mph N/A   Partly Cloudy
10:52 AM 55.9 °F - 33.1 °F 42% 30.12 in 10.0 mi SW 23.0 mph 31.1 mph N/A   Partly Cloudy
11:52 AM 60.1 °F - 33.1 °F 36% 30.12 in 10.0 mi SW 20.7 mph 31.1 mph N/A   Clear
12:52 PM 62.1 °F - 34.0 °F 35% 30.08 in 10.0 mi SW 19.6 mph 31.1 mph N/A   Clear
1:52 PM 64.0 °F - 33.1 °F 31% 30.06 in 10.0 mi SW 21.9 mph 32.2 mph N/A   Clear
3:52 PM 64.9 °F - 35.1 °F 33% 30.05 in 10.0 mi SW 19.6 mph 27.6 mph N/A   Clear
4:52 PM 64.0 °F - 36.0 °F 35% 30.06 in 10.0 mi SW 13.8 mph - N/A   Clear
6:52 PM 55.9 °F - 37.9 °F 51% 30.11 in 10.0 mi North 15.0 mph - N/A   Partly Cloudy
8:52 PM 51.1 °F - 37.9 °F 61% 30.19 in 10.0 mi North 13.8 mph - N/A   Overcast